Back to catalog

STARLINK-4432

AliveCommunicationsSSO
NORAD 53487·PAYLOAD·🇺🇸 United States

Launched Aug 12, 2022 from Vandenberg Space Force Base

Loading…

Next Passes (next 24 hours)

TLE

FreshSource: CelesTrak SupGP

Epoch: Sep 14, 2026, 14:41 UTC

1 53487C 22099Y   26257.61229167  .00026915  00000+0  83582-3 0  2573
2 53487  97.2859  15.4016 0001299  94.1455 146.8566 15.33413545    16

Track STARLINK-4432 in real time with AllMySat

Download on the App Store